Regional Weather Roundup
Issued by NWS

Home | Current Version | Previous Version | Graphics & Text | Print | Product List | Glossary Off
Versions: 1 2 3 4 5 6 7 8 9 10 11 12 13 14 15 16 17 18 19 20 21 22 23 24 25 26 27 28 29 30 31 32 33 34 35 36 37 38 39 40 41 42 43 44 45 46 47 48 49 50

000
ASUS43 KTOP 190608
RWRKS

WEATHER ROUNDUP FOR KANSAS
NATIONAL WEATHER SERVICE GOODLAND KS
1200 AM CST THU JAN 19 2017

NOTE:  "FAIR" INDICATES FEW OR NO CLOUDS BELOW 12,000 FEET WITH NO
SIGNIFICANT WEATHER AND/OR OBSTRUCTIONS TO VISIBILITY.

KSZ001>006-013>018-027>032-041>047-190700-
NORTHWEST KANSAS

CITY           SKY/WX    TMP DP  RH WIND       PRES   REMARKS
GOODLAND       CLEAR     36  30  79 S8        29.69F
6HR MIN TEMP:  35; 6HR MAX TEMP:  40;

HAYS           CLOUDY    43  42  97 S14       29.79F
HILL CITY      CLEAR     41  40  96 S5        29.76F
6HR MIN TEMP:  39; 6HR MAX TEMP:  47;

RUSSELL        CLOUDY    41  40  96 S18       29.78F
6HR MIN TEMP:  40; 6HR MAX TEMP:  47;

$$

KSZ061>065-074>080-084>089-190700-
SOUTHWEST KANSAS

CITY           SKY/WX    TMP DP  RH WIND       PRES   REMARKS
DODGE CITY     CLOUDY    44  43  96 S16       29.78F FOG
6HR MIN TEMP:  43; 6HR MAX TEMP:  50;

ELKHART          N/A     35  27  73 S8          N/A
GARDEN CITY    CLOUDY    44  42  93 S13       29.73F
6HR MIN TEMP:  38; 6HR MAX TEMP:  47;

GREAT BEND     CLOUDY    45  43  93 S21       29.81F
LIBERAL        CLEAR     41  36  81 S10       29.74F
PRATT          CLOUDY    43  41  94 S15G21    29.83F
6HR MIN TEMP:  41; 6HR MAX TEMP:  47;

$$

KSZ066>073-081>083-090>101-190700-
SOUTHEAST KANSAS

CITY           SKY/WX    TMP DP  RH WIND       PRES   REMARKS
CHANUTE        CLOUDY    46  44  93 S6        29.93F
6HR MIN TEMP:  46; 6HR MAX TEMP:  47;

COFFEYVILLE    CLOUDY    47  46  97 S6        29.94F FOG
6HR MIN TEMP:  47; 6HR MAX TEMP:  50;

HUTCHINSON     MOCLDY    40  37  89 S8        29.86F
6HR MIN TEMP:  37; 6HR MAX TEMP:  46;

MEDICINE LODGE   N/A     45  43  93 S6        29.85F
NEWTON         CLEAR     42  38  85 S9        29.88F
PARSONS        CLOUDY    47  44  90 S5        29.94F
6HR MIN TEMP:  47; 6HR MAX TEMP:  48;

WICHITA INTL   MOCLDY    43  38  82 S10       29.87F
6HR MIN TEMP:  42; 6HR MAX TEMP:  48;

WICHITA JABRA  MOCLDY    43  38  82 S8        29.88F
6HR MIN TEMP:  43; 6HR MAX TEMP:  47;

WICHITA MCCONL CLOUDY    44  39  82 S8        29.87F
WINFIELD       CLOUDY    46  41  82 SE6       29.91F
6HR MIN TEMP:  46; 6HR MAX TEMP:  50;

$$

KSZ007>012-019>026-033>040-048>060-102>105-190700-
NORTHEAST KANSAS

CITY           SKY/WX    TMP DP  RH WIND       PRES   REMARKS
CONCORDIA      CLEAR     38  37  97 SE13      29.83F WCI  30
6HR MIN TEMP:  38; 6HR MAX TEMP:  43;

EMPORIA        CLOUDY    44  39  82 SE8       29.90F
6HR MIN TEMP:  38; 6HR MAX TEMP:  45;

LAWRENCE       CLOUDY    38  38 100 E6        29.94F
6HR MIN TEMP:  30; 6HR MAX TEMP:  39;

MANHATTAN      CLOUDY    45  36  70 CALM      29.88F
6HR MIN TEMP:  39; 6HR MAX TEMP:  50;

MARYSVILLE     PTCLDY    37  34  87 SE7       29.87F
OLATHE IND     CLOUDY    42  39  89 E5        29.94F
6HR MIN TEMP:  37; 6HR MAX TEMP:  43;

OLATHE EXE     CLOUDY    42  40  92 CALM      29.94S
6HR MIN TEMP:  39; 6HR MAX TEMP:  42;

SALINA           N/A    N/A N/A N/A MISG        N/A
TOPEKA BILLARD CLOUDY    40  36  86 E5        29.92F
6HR MIN TEMP:  37; 6HR MAX TEMP:  44;

TOPEKA FORBES  CLOUDY    41  38  89 SE6       29.91F
6HR MIN TEMP:  37; 6HR MAX TEMP:  45;

$$




USA.gov is the U.S. government's official web portal to all federal, state and local government web resources and services.